Flag for U.S.A. Weather past 2 weeks in Anchorage, Alaska, U.S.A.

Now
27 °F

Light snow. Ice fog.


Feels Like: 23 °F
Forecast: 22 / 27 °F
Wind: 3 mph from Northeast

Location: Lake Hood Seaplane

Current Time: Dec 22, 2014 at 6:54:57 AM

Latest Report: Dec 22, 2014 at 5:53 AM


Visibility: 4 mi

Pressure: 29.67 "Hg

Humidity: 85%

Dew point: 23 °F

Location of AnchorageLocation

Historic Weather in Anchorage — Graph

°F

Anchorage temperature yesterday

Maximum temperature yesterday: 27 °F (at 4:53 PM)
Minimum temperature yesterday: 20 °F (at 2:53 AM)
Average temperature yesterday: 25 °F

Past Weeks' High & Low Weather Summary

 TemperatureHumidityPressure
High38 °F (Dec 8, 12:53 PM)93% (Dec 11, 7:00 AM)29.78 "Hg (Dec 11, 7:00 AM)
Low12 °F (Dec 13, 2:04 AM)60% (Dec 20, 2:53 AM)28.74 "Hg (Dec 8, 9:53 PM)
Average27 °F82%29.24 "Hg
* Reported Dec 7 5:53 AM — Dec 22 5:53 AM, Anchorage, Weather by CustomWeather, © 2014

Note: Actual official high and low records may vary slightly from our data, if they occured in-between our weather recording intervals... More about our weather records

Advertising

Anchorage weather history for previous 24 hours

 ConditionsComfort  
Time TempWeatherWind HumidityBarometerVisibility
5:53 AM
Dec 22
27 °FLight snow. Ice fog.3 mph85%29.67 "Hg4 mi
4:53 AM27 °FLight snow. Ice fog.3 mph85%29.65 "Hg3 mi
3:53 AM26 °FOvercast.3 mph84%29.64 "Hg10 mi
2:53 AM26 °FOvercast.5 mph84%29.62 "Hg10 mi
1:53 AM26 °FMostly cloudy.6 mph81%29.61 "Hg10 mi
1:00 AM27 °FLight snow. Ice fog.5 mph80%29.58 "Hg2 mi
11:53 PM
Dec 21
26 °FOvercast.3 mph81%29.57 "Hg10 mi
10:53 PM25 °FClear.No wind85%29.54 "Hg10 mi
9:53 PM25 °FPassing clouds.No wind85%29.51 "Hg10 mi
8:53 PM25 °FOvercast.No wind85%29.49 "Hg10 mi
7:53 PM26 °FOvercast.No wind81%29.46 "Hg10 mi
6:53 PM26 °FPassing clouds.No wind81%29.44 "Hg10 mi
5:53 PM27 °FOvercast.No wind81%29.41 "Hg10 mi
4:53 PM27 °FOvercast.No wind85%29.39 "Hg10 mi
3:53 PM26 °FMostly cloudy.5 mph84%29.36 "Hg8 mi
2:53 PM26 °FLight snow. Overcast.6 mph84%29.35 "Hg8 mi
1:59 PM27 °FLight snow. Mostly cloudy.5 mph80%29.32 "Hg2 mi
12:49 PM26 °FLight snow. Ice fog.3 mph84%29.29 "Hg3 mi
11:53 AM26 °FLight snow. Ice fog.7 mph84%29.28 "Hg1 mi
10:53 AM26 °FOvercast.6 mph81%29.24 "Hg6 mi
9:53 AM25 °FMostly cloudy.3 mph81%29.21 "Hg10 mi
9:02 AM25 °FLight snow. Mostly cloudy.3 mph80%29.18 "Hg4 mi
8:53 AM24 °FLight snow. Mostly cloudy.5 mph81%29.18 "Hg2 mi
7:53 AM26 °FMostly cloudy.3 mph77%29.15 "Hg10 mi
6:53 AM26 °FOvercast.3 mph77%29.12 "Hg10 mi
Weather by CustomWeather, © 2014

See weather overviewHow to use our weather pages